User: anonymous   Login
Location: Waning Moon II Observatory
(30.3730°N, 89.7620°W)
Time: 04:18:28
(UTC-05:00)
Language:

Meteor 1-21 - Orbit

View from above orbital plane
View from above orbital plane
View from above satellite
View from above satellite

Ground track
Ground track

The orbit data is extracted from the following two-line orbital elements,

1 07714U 75023A   14294.97254837  .00000374  00000-0  21192-3 0  9218
2 07714 081.2122 055.3211 0034620 104.6015 033.5437 14.07828050348810
Epoch (UTC): 21 October 2014 23:20:28
Eccentricity: 0.0034620
inclination: 81.2122°
perigee height: 842 km
apogee height: 892 km
right ascension of ascending node: 55.3211°
argument of perigee: 104.6015°
revolutions per day: 14.07828050
mean anomaly at epoch: 33.5437°
orbit number at epoch: 34881

The dashed part of the orbit path shows where the satellite is in the earth's shadow,  

DLR